Regional Weather Roundup
Issued by NWS

Home | Current Version | Previous Version | Text Only | Print | Product List | Glossary Off
Versions: 1 2 3 4 5 6 7 8 9 10 11 12 13 14 15 16 17 18 19 20 21 22 23 24 25 26 27 28 29 30 31 32 33 34 35 36 37 38 39 40 41 42 43 44 45 46 47 48 49 50

000
ASUS43 KMKX 062121
RWRWI

WISCONSIN REGIONAL WEATHER ROUNDUP
NATIONAL WEATHER SERVICE MILWAUKEE/SULLIVAN WI
400 PM CDT WED MAY 06 2015

NOTE: "FAIR" INDICATES FEW OR NO CLOUDS BELOW 12,000 FEET WITH NO
SIGNIFICANT WEATHER AND/OR OBSTRUCTIONS TO VISIBILITY.

WIZ001-002-006>008-014>016-023>028-062200-
NORTHWEST WISCONSIN

CITY           SKY/WX    TMP DP  RH WIND       PRES   REMARKS
SUPERIOR ARPT  CLOUDY    48  37  64 NE9G18    30.03F
ASHLAND        CLOUDY    57  50  77 N10       30.04F
HAYWARD        PTSUNNY   73  55  53 SE12      30.01F
SIREN          PTSUNNY   74  56  51 SE12      29.96F
CUMBERLAND     PTSUNNY   70  55  60 SE12      29.98F
RICE LAKE      PTSUNNY   72  56  58 E12       30.01F
CHETEK         PTSUNNY   72  60  65 E10       30.00F
LADYSMITH      PTSUNNY   70  59  66 E9        30.05F
EAU CLAIRE     PTSUNNY   76  58  53 SE8       29.98F
MENOMONIE      PTSUNNY   75  60  59 E15       29.98F
NEW RICHMOND   CLOUDY    74  57  55 SE14G20   29.94F
OSCEOLA        CLOUDY    73  59  60 E14G21    29.95F
$$

WIZ003>005-009-010-017-018-062200-
NORTH CENTRAL WISCONSIN

CITY           SKY/WX    TMP DP  RH WIND       PRES   REMARKS
MANITOWISH WTR CLOUDY    67  58  72 SE10G17   30.08F
ARBOR VITAE    CLOUDY    67  57  70 SE9       30.08F
WOODRUFF       CLOUDY    67  57  70 SE9       30.08F
RHINELANDER    CLOUDY    66  56  70 SE9       30.11F
EAGLE RIVER    CLOUDY    69  53  55 S6        30.10F
LAND O LAKES   CLOUDY    71  53  53 S9G16     30.10F
PHILLIPS       PTSUNNY   64  57  78 SE9       30.07F
TOMAHAWK       CLOUDY    65  58  78 E6        30.09F
MEDFORD        PTSUNNY   70  57  63 SE9       30.06F
MERRILL        CLOUDY    69  59  70 SE12      30.10F
$$

WIZ029-030-035-036-043>047-062200-
CENTRAL WISCONSIN

CITY           SKY/WX    TMP DP  RH WIND       PRES   REMARKS
WAUSAU         PTSUNNY   70  57  63 E12       30.07F
MOSINEE        SUNNY     72  59  64 SE10      30.09F
MARSHFIELD     PTSUNNY   75  58  55 SE14      30.06F
STEVENS POINT  MOSUNNY   70  57  62 SE12      30.09F
WAUPACA        PTSUNNY   71  58  64 E12       30.11S
WAUTOMA        SUNNY     73  61  66 SE9       30.09F
WISC RAPIDS    MOSUNNY   75  55  49 SE9       30.07F
CAMP DOUGLAS   PTSUNNY   77  63  61 SE13G20   30.03F
$$

WIZ011>013-019>022-031-037>040-048>050-062200-
NORTHEAST WISCONSIN

CITY           SKY/WX    TMP DP  RH WIND       PRES   REMARKS
ANTIGO         CLOUDY    66  58  74 SE10      30.11F
SHAWANO        PTSUNNY   69  58  68 E7        30.11F
OCONTO         MOSUNNY   62  52  68 E7        30.13F
STURGEON BAY   SUNNY     59  48  67 E9        30.17F
GREEN BAY      CLOUDY    70  58  65 E9        30.12F
MANITOWOC        N/A    N/A N/A N/A MISG        N/A
APPLETON       NOT AVBL
CLINTONVILLE   PTSUNNY   70  55  60 SE6       30.10S
OSHKOSH        PTSUNNY   64  57  78 SE9       30.11F
$$

WIZ032>034-041-042-053>061-062200-
SOUTHWEST WISCONSIN

CITY           SKY/WX    TMP DP  RH WIND       PRES   REMARKS
LA CROSSE      PTSUNNY   79  57  46 SE14G22   29.97F HX  80
SPARTA         MOSUNNY   78  56  47 SE13      30.02F
VIROQUA        PTSUNNY   76  57  51 SE13G22   30.02F
BOSCOBEL       MOSUNNY   80  58  46 S9G22     30.01F HX  80
PRAIRIE DU CHI MOSUNNY   78  55  45 SE13G21   29.98F
PLATTEVILLE    PTSUNNY   77  60  55 SE13G18   30.03F
$$

WIZ056-057-062-063-064-067-068-062200-
SOUTH CENTRAL WISCONSIN

CITY           SKY/WX    TMP DP  RH WIND       PRES   REMARKS
REEDSBURG      MOSUNNY   74  62  65 E8        30.05F
BARABOO/DELLS  NOT AVBL
LONE ROCK      CLOUDY    77  60  55 SE13      30.02F
MINERAL POINT  MOSUNNY   79  61  53 SE9G22    30.04F HX  80
MADISON        PTSUNNY   75  63  66 E13       30.07F
MIDDLETON      MOSUNNY   75  62  62 E13       30.07F
WATERTOWN      MOSUNNY   72  61  67 E7        30.09F
MONROE         SUNNY     77  63  61 SE12      30.06F
JANESVILLE     MOSUNNY   79  61  53 SE12G17   30.07F HX  80
$$

WIZ051-052-058>065-066-070>072-062200-
SOUTHEAST WISCONSIN

CITY           SKY/WX    TMP DP  RH WIND       PRES   REMARKS
MILWAUKEE      PTSUNNY   55  50  83 NE6       30.13F
WAUKESHA       PTSUNNY   63  54  72 E7        30.13F
MILWAUKEE/TIMM SUNNY     59  50  72 E7        30.14F
RACINE         CLOUDY    56  52  86 SE6       30.15F FOG
BURLINGTON     MOSUNNY   67  58  72 E8        30.12S
KENOSHA        MOSUNNY   58  53  84 E7        30.13F
FOND DU LAC    MOSUNNY   66  58  75 SE9       30.11F
SHEBOYGAN      PTSUNNY   59  54  83 SE7       30.15F
WEST BEND      MOSUNNY   64  54  68 E7        30.12F
JUNEAU         MOSUNNY   70  60  70 E9        30.11F
$$

LSZ147-162-062200-
LAKE SUPERIOR

STATION/POSITION TIME  TEMP    WIND        PRES    WAVE
                       AIR SEA DIR/SP/G            HT/PER
                 (UTC) (F)     (DEG/KT/KT) (MB)    (FT/S)
W MID LAKE BUOY  2050   40 36   50/ 10/ 12 1019.2F   0
DEVILS ISLAND    2100   41      50/ 13/ 14 1018.4F
PORT WING        2040   41      30/ 16/ 18 1017.3F
SAXON HARBOR     2040          320/  4/  6 1016.9F
$$

LMZ867-665-643>646-062200-
LAKE MICHIGAN

STATION/POSITION TIME  TEMP    WIND        PRES    WAVE
                       AIR SEA DIR/SP/G            HT/PER
                 (UTC) (F)     (DEG/KT/KT) (MB)    (FT/S)
CHAMBERS ISLAND  2000   59      80/  7/ 10 1022.0F
NORTHPORT PIER   2000   47     140/  5/  7 1022.4F
SISTER BAY       2002   65     150/  8/ 12   N/A
KEWAUNEE LAKESHO 2000   46      40/  7/  8 1021.2
SHEBOYGAN LAKESH 2100   47     100/  4/  5 1021.5F
PORT WASHINGTON  2040   49      70/  3/  4 1021.3F
ATWATER BUOY     2100   44      20/  2/  4 1021.9F
MILWAUKEE LAKESH 2100   47      50/  5/  5   N/A
KENOSHA   LAKESH 2100   46      10/  2/  3 1020.3F
$$

TC  - TEMPERATURE IN CELSIUS
VSB - VISIBILITY IN STATUTE MILES
WCI - WIND CHILL INDEX
HX  - HEAT INDEX




USA.gov is the U.S. government's official web portal to all federal, state and local government web resources and services.